This is the latest recevied weather packets stored in our database for station/object WX6HNX-14. If no packets are shown the sender has not sent any weather packets the latest 10 day(s).
| Time | Temp. | Humidity | Pressure | Rain* | Wind** | Luminosity | Snow |
|---|---|---|---|---|---|---|---|
| 1777392448 | 15° C | 64% | 1020.9 hPa | 0 mm | - | - | - |
| 1777392147 | 15° C | 64% | 1020.9 hPa | 0 mm | - | - | - |
| 1777391848 | 15° C | 65% | 1020.9 hPa | 0 mm | - | - | - |
| 1777391547 | 15° C | 66% | 1020.9 hPa | 0 mm | - | - | - |
| 1777391248 | 15° C | 66% | 1020.9 hPa | 0 mm | - | - | - |
| 1777390948 | 15° C | 65% | 1020.9 hPa | 0 mm | - | - | - |
| 1777390648 | 14.44° C | 65% | 1020.8 hPa | 0 mm | - | - | - |
| 1777390349 | 15° C | 64% | 1020.9 hPa | 0 mm | - | - | - |
| 1777390048 | 15° C | 65% | 1020.7 hPa | 0 mm | - | - | - |
| 1777389747 | 14.44° C | 66% | 1020.8 hPa | 0 mm | - | - | - |
| 1777389391 | 14.44° C | 67% | 1020.8 hPa | 0 mm | - | - | - |
| 1777389091 | 13.89° C | 68% | 1020.9 hPa | 0 mm | - | - | - |
| 1777388790 | 13.89° C | 70% | 1020.8 hPa | 0 mm | - | - | - |
| 1777388491 | 13.89° C | 71% | 1020.8 hPa | 0 mm | - | - | - |
| 1777388190 | 13.33° C | 72% | 1020.8 hPa | 0 mm | - | - | - |
| 1777387891 | 13.33° C | 73% | 1020.8 hPa | 0 mm | - | - | - |
| 1777387297 | 12.78° C | 73% | 1020.6 hPa | 0 mm | - | - | - |
| 1777386846 | 12.78° C | 74% | 1020.6 hPa | 0 mm | - | - | - |
| 1777386546 | 12.78° C | 74% | 1020.6 hPa | 0 mm | - | - | - |
| 1777386246 | 12.22° C | 75% | 1020.4 hPa | 0 mm | - | - | - |
| 1777385946 | 12.22° C | 75% | 1020.4 hPa | 0 mm | - | - | - |
| 1777385647 | 12.22° C | 75% | 1020.4 hPa | 0 mm | - | - | - |
| 1777385346 | 11.67° C | 75% | 1020.1 hPa | 0 mm | - | - | - |
| 1777385046 | 11.67° C | 76% | 1020.2 hPa | 0 mm | - | - | - |
| 1777384750 | 11.11° C | 77% | 1020.1 hPa | 0 mm | - | - | - |
* Rain latest hour (hover to see other rain measurements)
** Current wind speed in m/s (hover to see current wind gust speed)